Regional Weather Roundup
Issued by NWS

Home | Current Version | Previous Version | Graphics & Text | Print | Product List | Glossary On
Versions: 1 2 3 4 5 6 7 8 9 10 11 12 13 14 15 16 17 18 19 20 21 22 23 24 25 26 27 28 29 30 31 32 33 34 35 36 37 38 39 40 41 42 43 44 45 46 47 48 49 50
000
ASUS45 KCYS 280210
RWRWY

WYOMING REGIONAL WEATHER ROUNDUP
NATIONAL WEATHER SERVICE CHEYENNE WY
800 PM MDT FRI MAR 27 2015

NOTE:  "FAIR" INDICATES FEW OR NO CLOUDS BELOW 12,000 FEET
WITH NO SIGNIFICANT WEATHER AND/OR OBSTRUCTIONS TO VISIBILITY.

WYZ001-280300-
YELLOWSTONE NATIONAL PARK

CITY           SKY/WX    TMP DP  RH WIND       PRES   REMARKS
LK YELLOWSTONE   N/A     42  26  53 W5        30.25R
W YELLOWSTONE  NOT AVBL

$$
WYZ002>013-054>058-071-098>099-280300-
NORTHERN WYOMING

CITY           SKY/WX    TMP DP  RH WIND       PRES   REMARKS
JACKSON        PTCLDY    50  32  50 CALM      30.19F
CODY           FAIR      63  28  27 W9G18     30.05S
GREYBULL       FAIR      62  29  28 SW6       29.98S
WORLAND        FAIR      58  32  37 SE6       30.00S
SHERIDAN       FAIR      50  32  50 W9        29.97S
BUFFALO        FAIR      54  29  38 W10       30.03S
GILLETTE       FAIR      49  32  52 CALM      29.99R
HULETT         FAIR      59  30  33 CALM      29.99S
NEWCASTLE      FAIR      54  30  40 N7        29.99S

$$
WYZ014>020-022>026-101>103-280300-
CENTRAL WYOMING

CITY           SKY/WX    TMP DP  RH WIND       PRES   REMARKS
BIG PINEY      FAIR      49  24  37 N10       30.23S
PINEDALE       FAIR      45  30  57 NW8       30.24S
DUBOIS         FAIR      50  27  40 W10G20    30.20R
LANDER         FAIR      59  24  26 NW10      30.09R
RIVERTON       FAIR      61  24  24 NW14      30.08R
CASPER         FAIR      52  25  35 W5        30.07S
DOUGLAS        FAIR      50  26  39 NW9       30.05R

$$
WYZ021-027>030-104>119-280300-
SOUTHERN WYOMING

CITY           SKY/WX    TMP DP  RH WIND       PRES   REMARKS
EVANSTON       FAIR      53  27  36 W14       30.25F
KEMMERER       FAIR      50  28  43 W6        30.26S
FORT BRIDGER   FAIR      56  28  34 W8        30.27S
ROCK SPRINGS   FAIR      57  22  25 W15       30.20R
DIXON          FAIR      55  23  28 N6        30.20R
RAWLINS        MOCLDY    52  24  33 NW6       30.16S
SARATOGA       CLOUDY    52  28  40 SW6       30.18S
LARAMIE        MOCLDY    49  23  36 NW12      30.17S
CHEYENNE       FAIR      57  23  26 N7        30.11R
TORRINGTON     FAIR      57  26  30 N9        29.99R
PINE BLUFFS    FAIR      48  27  43 NW9       30.07R

$$


USA.gov is the U.S. government's official web portal to all federal, state and local government web resources and services.